Simultaneous Nadir Overpasses (SNOs) Predictions

Prediction of SNOs between AQUA and NOAA-19 Satellite Orbit:

Table of predicted SNOs for the next 14.0 days since TLE Epoch: 4/15/2016
Index Date (AQUA) Time (AQUA) Lat,Lon (AQUA) SZA (AQUA ) Date (NOAA-19) Time (NOAA-19) Lat,Lon (NOAA-19) SZA (NOAA-19 ) Distance(km) Time Diff (sec)
1 04/16/2016 11:52:02 -80.76, 144.10 107.65 04/16/2016 11:52:14 -80.77, 143.98 107.64 2.32 12
2 04/18/2016 16:36:21 -80.78, 72.79 108.39 04/18/2016 16:35:21 -80.79, 72.63 108.34 2.99 60
3 04/18/2016 17:25:47 80.77,-119.39 71.57 04/18/2016 17:26:15 80.76,-119.26 71.54 2.47 28
4 04/20/2016 22:10:06 80.79, 169.22 70.86 04/20/2016 22:09:22 80.79, 169.24 70.88 0.48 44
5 04/20/2016 22:59:31 -80.75, -22.60 109.24 04/20/2016 23:00:25 -80.75, -22.43 109.28 2.98 54
6 04/23/20
